Location: Moscow
(55.7500°N, 37.5830°E)
Time: 06:32:42
(UTC+03:00)

Envisat - Pass Details

Date: 29 October 2021
Orbit: 764 x 766 km, 98.2° (Epoch: 28 November)

Event Time Altitude Azimuth Distance (km) Brightness Sun altitude
Rises 04:09:21 0° 25° (NNE) 3,246 6.8 -28.3°
Reaches altitude 10° 04:12:40 10° 48° (NE) 2,314 6.3 -27.9°
Maximum altitude 04:15:38 15° 84° (E) 1,959 5.9 -27.5°
Drops below altitude 10° 04:18:35 10° 120° (ESE) 2,303 6.0 -27.1°
Sets 04:21:52 0° 143° (SE) 3,223 6.5 -26.7°
